This is the latest recevied weather packets stored in our database for station/object N7EEL. If no packets are shown the sender has not sent any weather packets the latest 1 day(s).
| Time | Temp. | Humidity | Pressure | Rain* | Wind** | Luminosity | Snow |
|---|---|---|---|---|---|---|---|
| 1778018725 | 33.33° C | - | - | 0 mm | 0.45 m/s, 291° | - | - |
| 1778016925 | 33.33° C | - | - | 0 mm | 1.34 m/s, 319° | - | - |
| 1778015124 | 32.22° C | - | - | 0 mm | 0.89 m/s, 328° | - | - |
| 1778013324 | 32.22° C | - | - | 0 mm | 1.34 m/s, 343° | - | - |
| 1778011523 | 31.11° C | - | - | 0 mm | 1.34 m/s, 269° | - | - |
| 1778009723 | 30.56° C | - | - | 0 mm | 1.34 m/s, 295° | - | - |
| 1778007923 | 29.44° C | - | - | 0 mm | 0.89 m/s, 285° | - | - |
| 1778006122 | 27.78° C | - | - | 0 mm | 1.34 m/s, 8° | - | - |
| 1778004322 | 26.11° C | - | - | 0 mm | 1.79 m/s, 267° | - | - |
| 1778002521 | 25.56° C | - | - | 0 mm | 1.79 m/s, 264° | - | - |
| 1778000721 | 23.89° C | - | - | 0 mm | 1.34 m/s, 283° | - | - |
| 1777998921 | 22.78° C | - | - | 0 mm | 0.89 m/s, 307° | - | - |
| 1777997120 | 21.67° C | - | - | 0 mm | 1.34 m/s, 270° | - | - |
| 1777995320 | 20.56° C | - | - | 0 mm | 0.89 m/s, 285° | - | - |
| 1777993520 | 18.33° C | - | - | 0 mm | 0 m/s | - | - |
| 1777991719 | 17.22° C | - | - | 0 mm | 0.89 m/s, 287° | - | - |
| 1777989919 | 15.56° C | - | - | 0 mm | 0 m/s | - | - |
| 1777988118 | 15° C | - | - | 0 mm | 0 m/s | - | - |
| 1777986318 | 14.44° C | - | - | 0 mm | 0 m/s | - | - |
| 1777984517 | 15° C | - | - | 0 mm | 0 m/s | - | - |
| 1777982717 | 15° C | - | - | 0 mm | 0 m/s | - | - |
| 1777980917 | 16.11° C | - | - | 0 mm | 0 m/s | - | - |
| 1777979116 | 16.67° C | - | - | 0 mm | 0 m/s | - | - |
| 1777977316 | 16.11° C | - | - | 0 mm | 0 m/s | - | - |
| 1777975516 | 17.22° C | - | - | 0 mm | 0 m/s | - | - |
* Rain since midnight (hover to see other rain measurements)
** Current wind speed in m/s (hover to see current wind gust speed)